TimePST,TemperatureF,Dew PointF,Humidity,Sea Level PressureIn,VisibilityMPH,Wind Direction,Wind SpeedMPH,Gust SpeedMPH,PrecipitationIn,Events,Conditions,WindDirDegrees,DateUTC
12:06 AM,33.8,32.0,93,30.18,1.8,Calm,Calm,-,N/A,,Clear,0,2013-01-19 08:06:00
12:21 AM,33.8,32.0,93,30.18,3.0,Calm,Calm,-,N/A,,Clear,0,2013-01-19 08:21:00
12:47 AM,33.8,30.2,87,30.18,1.8,Calm,Calm,-,N/A,,Clear,0,2013-01-19 08:47:00
12:48 AM,33.1,30.9,92,30.17,1.5,Calm,Calm,-,N/A,,Clear,0,2013-01-19 08:48:00
12:59 AM,32.0,30.2,93,30.18,0.5,Calm,Calm,-,N/A,Fog,Fog,0,2013-01-19 08:59:00
1:21 AM,32.0,30.2,93,30.18,0.2,Calm,Calm,-,N/A,Fog,Fog,0,2013-01-19 09:21:00
1:35 AM,30.2,28.4,93,30.19,0.5,Calm,Calm,-,N/A,Fog,Light Freezing Fog,0,2013-01-19 09:35:00
1:46 AM,32.0,30.2,93,30.19,0.2,NNW,3.5,-,N/A,Fog,Fog,330,2013-01-19 09:46:00
1:53 AM,30.9,30.0,96,30.18,0.2,NNW,3.5,-,N/A,Fog,Light Freezing Fog,330,2013-01-19 09:53:00
2:00 AM,32.0,30.2,93,30.19,0.8,Calm,Calm,-,N/A,,Clear,0,2013-01-19 10:00:00
2:07 AM,30.2,30.2,100,30.19,1.0,North,3.5,-,N/A,,Clear,350,2013-01-19 10:07:00
2:15 AM,30.2,28.4,93,30.19,0.8,North,4.6,-,N/A,,Clear,350,2013-01-19 10:15:00
2:21 AM,30.2,28.4,93,30.19,2.0,North,5.8,-,N/A,,Clear,350,2013-01-19 10:21:00
2:29 AM,30.2,30.2,100,30.20,6.0,NNW,5.8,-,N/A,,Clear,340,2013-01-19 10:29:00
2:53 AM,30.9,30.0,96,30.18,7.0,NW,4.6,-,N/A,,Clear,320,2013-01-19 10:53:00
3:53 AM,30.9,28.9,92,30.19,7.0,Calm,Calm,-,N/A,,Clear,0,2013-01-19 11:53:00
4:34 AM,30.2,28.4,93,30.20,1.8,NNW,4.6,-,N/A,,Clear,340,2013-01-19 12:34:00
4:43 AM,30.2,28.4,93,30.20,3.0,NNW,3.5,-,N/A,,Clear,340,2013-01-19 12:43:00
4:53 AM,30.0,28.0,92,30.19,8.0,Calm,Calm,-,N/A,,Clear,0,2013-01-19 12:53:00
5:53 AM,28.9,27.0,92,30.19,8.0,Calm,Calm,-,N/A,,Clear,0,2013-01-19 13:53:00
6:53 AM,27.0,24.1,89,30.20,10.0,Calm,Calm,-,N/A,Fog,Patches of Fog,0,2013-01-19 14:53:00
7:08 AM,28.4,26.6,93,30.22,1.8,Calm,Calm,-,N/A,Fog,Patches of Fog,0,2013-01-19 15:08:00
7:53 AM,28.0,25.0,88,30.21,10.0,Calm,Calm,-,N/A,Fog,Patches of Fog,0,2013-01-19 15:53:00
8:53 AM,32.0,32.0,100,30.23,7.0,Calm,Calm,-,N/A,Fog,Patches of Fog,0,2013-01-19 16:53:00
9:53 AM,39.9,35.1,83,30.25,10.0,Calm,Calm,-,N/A,,Scattered Clouds,0,2013-01-19 17:53:00
10:53 AM,48.9,35.1,59,30.23,10.0,Calm,Calm,-,N/A,,Scattered Clouds,0,2013-01-19 18:53:00
11:53 AM,54.0,35.1,49,30.20,10.0,Calm,Calm,-,N/A,,Haze,0,2013-01-19 19:53:00
12:53 PM,59.0,37.0,44,30.17,10.0,Calm,Calm,-,N/A,,Scattered Clouds,0,2013-01-19 20:53:00
1:53 PM,63.0,37.0,38,30.15,10.0,Calm,Calm,-,N/A,,Scattered Clouds,0,2013-01-19 21:53:00
2:53 PM,63.0,39.0,41,30.14,9.0,South,6.9,-,N/A,,Scattered Clouds,190,2013-01-19 22:53:00
3:53 PM,63.0,41.0,45,30.14,10.0,South,4.6,-,N/A,,Clear,170,2013-01-19 23:53:00
4:53 PM,59.0,39.0,48,30.14,10.0,Calm,Calm,-,N/A,,Scattered Clouds,0,2013-01-20 00:53:00
5:53 PM,54.0,37.9,55,30.14,10.0,Calm,Calm,-,N/A,,Scattered Clouds,0,2013-01-20 01:53:00
6:53 PM,46.0,37.0,71,30.15,10.0,Calm,Calm,-,N/A,,Clear,0,2013-01-20 02:53:00
7:53 PM,44.1,37.9,79,30.17,10.0,NNW,3.5,-,N/A,,Clear,330,2013-01-20 03:53:00
8:53 PM,39.9,37.0,89,30.19,8.0,NW,3.5,-,N/A,,Clear,320,2013-01-20 04:53:00
9:53 PM,39.0,37.0,93,30.20,9.0,Calm,Calm,-,N/A,,Clear,0,2013-01-20 05:53:00
10:53 PM,37.0,34.0,89,30.21,8.0,NNW,3.5,-,N/A,,Clear,330,2013-01-20 06:53:00
11:53 PM,37.0,34.0,89,30.21,9.0,NNW,3.5,-,N/A,,Clear,340,2013-01-20 07:53:00